date,time,SUV Intensity [MED/Hr],UV Index,Daily total [MED],Since Last [MED]
22/08/2023,00:00:22,0.000,0.0,0.0,0.0
22/08/2023,00:01:23,0.000,0.0,0.0,0.0
22/08/2023,00:02:22,-0.000,0.0,0.0,0.0
22/08/2023,00:03:20,0.000,0.0,0.0,0.0
22/08/2023,00:04:21,0.000,0.0,0.0,0.0
22/08/2023,00:05:23,0.000,0.0,0.0,0.0
22/08/2023,00:06:23,0.000,0.0,0.0,0.0
22/08/2023,00:07:23,0.001,0.0,0.0,0.0
22/08/2023,00:08:23,0.000,0.0,0.0,0.0
22/08/2023,00:09:23,0.000,0.0,0.0,0.0
22/08/2023,00:10:23,-0.000,0.0,0.0,0.0
22/08/2023,00:11:23,0.000,0.0,0.0,0.0
22/08/2023,00:12:21,-0.000,0.0,0.0,0.0
22/08/2023,00:13:21,0.001,0.0,0.0,0.0
22/08/2023,00:14:22,-0.000,0.0,0.0,0.0
22/08/2023,00:15:23,0.000,0.0,0.0,0.0
22/08/2023,00:16:22,0.000,0.0,0.0,0.0
22/08/2023,00:17:23,0.000,0.0,0.0,0.0
22/08/2023,00:18:23,-0.000,0.0,0.0,0.0
22/08/2023,00:19:23,0.000,0.0,0.0,0.0
22/08/2023,00:20:26,0.000,0.0,0.0,0.0
22/08/2023,00:21:23,0.000,0.0,0.0,0.0
22/08/2023,00:22:23,0.000,0.0,0.0,0.0
22/08/2023,00:23:24,0.001,0.0,0.0,0.0
22/08/2023,00:24:23,0.000,0.0,0.0,0.0
22/08/2023,00:25:23,0.000,0.0,0.0,0.0
22/08/2023,00:26:22,0.001,0.0,0.0,0.0
22/08/2023,00:27:22,0.000,0.0,0.0,0.0
22/08/2023,00:28:23,-0.000,0.0,0.0,0.0
22/08/2023,00:29:23,0.000,0.0,0.0,0.0
22/08/2023,00:30:23,0.000,0.0,0.0,0.0
22/08/2023,00:31:23,0.000,0.0,0.0,0.0
22/08/2023,00:32:21,0.000,0.0,0.0,0.0
22/08/2023,00:33:21,0.000,0.0,0.0,0.0
22/08/2023,00:34:23,0.000,0.0,0.0,0.0
22/08/2023,00:35:22,0.000,0.0,0.0,0.0
22/08/2023,00:36:23,0.001,0.0,0.0,0.0
22/08/2023,00:37:23,0.000,0.0,0.0,0.0
22/08/2023,00:38:23,0.000,0.0,0.0,0.0
22/08/2023,00:39:22,0.000,0.0,0.0,0.0
22/08/2023,00:40:23,0.001,0.0,0.0,0.0
22/08/2023,00:41:23,-0.000,0.0,0.0,0.0
22/08/2023,00:42:23,-0.000,0.0,0.0,0.0
22/08/2023,00:43:23,-0.000,0.0,0.0,0.0
22/08/2023,00:44:23,0.001,0.0,0.0,0.0
22/08/2023,00:45:23,-0.000,0.0,0.0,0.0
22/08/2023,00:46:23,-0.000,0.0,0.0,0.0
22/08/2023,00:47:23,-0.000,0.0,0.0,0.0
22/08/2023,00:48:23,0.000,0.0,0.0,0.0
22/08/2023,00:49:23,0.000,0.0,0.0,0.0
22/08/2023,00:50:23,0.000,0.0,0.0,0.0
22/08/2023,00:51:22,0.000,0.0,0.0,0.0
22/08/2023,00:52:23,-0.000,0.0,0.0,0.0
22/08/2023,00:53:23,-0.000,0.0,0.0,0.0
22/08/2023,00:54:23,0.000,0.0,0.0,0.0
22/08/2023,00:55:23,0.000,0.0,0.0,0.0
22/08/2023,00:56:23,0.000,0.0,0.0,0.0
22/08/2023,00:57:23,0.001,0.0,0.0,0.0
22/08/2023,00:58:23,-0.000,0.0,0.0,0.0
22/08/2023,00:59:22,0.001,0.0,0.0,0.0
22/08/2023,01:00:22,0.000,0.0,0.0,0.0
22/08/2023,01:01:23,0.000,0.0,0.0,0.0
22/08/2023,01:02:23,0.000,0.0,0.0,0.0
22/08/2023,01:03:23,0.000,0.0,0.0,0.0
22/08/2023,01:04:22,0.000,0.0,0.0,0.0
22/08/2023,01:05:23,0.001,0.0,0.0,0.0
22/08/2023,01:06:23,-0.001,0.0,0.0,0.0
22/08/2023,01:07:52,0.000,0.0,0.0,0.0
22/08/2023,01:09:23,0.000,0.0,0.0,0.0
22/08/2023,01:10:23,0.000,0.0,0.0,0.0
22/08/2023,01:11:23,0.001,0.0,0.0,0.0
22/08/2023,01:12:23,-0.000,0.0,0.0,0.0
22/08/2023,01:13:23,0.000,0.0,0.0,0.0
22/08/2023,01:14:22,0.000,0.0,0.0,0.0
22/08/2023,01:15:23,0.000,0.0,0.0,0.0
22/08/2023,01:16:23,0.001,0.0,0.0,0.0
22/08/2023,01:17:23,-0.000,0.0,0.0,0.0
22/08/2023,01:18:23,0.000,0.0,0.0,0.0
22/08/2023,01:19:23,0.000,0.0,0.0,0.0
22/08/2023,01:20:23,0.000,0.0,0.0,0.0
22/08/2023,01:21:23,-0.001,0.0,0.0,0.0
22/08/2023,01:22:22,0.000,0.0,0.0,0.0
22/08/2023,01:23:23,0.000,0.0,0.0,0.0
22/08/2023,01:24:23,0.000,0.0,0.0,0.0
22/08/2023,01:25:23,0.001,0.0,0.0,0.0
22/08/2023,01:26:21,0.000,0.0,0.0,0.0
22/08/2023,01:27:21,0.000,0.0,0.0,0.0
22/08/2023,01:28:23,0.000,0.0,0.0,0.0
22/08/2023,01:29:23,0.000,0.0,0.0,0.0
22/08/2023,01:30:23,0.001,0.0,0.0,0.0
22/08/2023,01:31:23,0.000,0.0,0.0,0.0
22/08/2023,01:32:23,-0.000,0.0,0.0,0.0
22/08/2023,01:33:23,0.001,0.0,0.0,0.0
22/08/2023,01:34:23,-0.000,0.0,0.0,0.0
22/08/2023,01:35:23,-0.000,0.0,0.0,0.0
22/08/2023,01:36:23,-0.000,0.0,0.0,0.0
22/08/2023,01:37:22,-0.000,0.0,0.0,0.0
22/08/2023,01:38:23,0.000,0.0,0.0,0.0
22/08/2023,01:39:23,-0.000,0.0,0.0,0.0
22/08/2023,01:40:23,0.000,0.0,0.0,0.0
22/08/2023,01:41:23,-0.000,0.0,0.0,0.0
22/08/2023,01:42:21,0.000,0.0,0.0,0.0
22/08/2023,01:43:21,0.000,0.0,0.0,0.0
22/08/2023,01:44:23,-0.000,0.0,0.0,0.0
22/08/2023,01:45:23,0.000,0.0,0.0,0.0
22/08/2023,01:46:23,0.000,0.0,0.0,0.0
22/08/2023,01:47:23,0.000,0.0,0.0,0.0
22/08/2023,01:48:23,0.000,0.0,0.0,0.0
22/08/2023,01:49:23,0.000,0.0,0.0,0.0
22/08/2023,01:50:23,-0.000,0.0,0.0,0.0
22/08/2023,01:51:23,-0.000,0.0,0.0,0.0
22/08/2023,01:52:23,0.001,0.0,0.0,0.0
22/08/2023,01:53:23,0.000,0.0,0.0,0.0
22/08/2023,01:54:23,0.001,0.0,0.0,0.0
22/08/2023,01:55:23,0.000,0.0,0.0,0.0
22/08/2023,01:56:23,0.001,0.0,0.0,0.0
22/08/2023,01:57:23,0.000,0.0,0.0,0.0
22/08/2023,01:58:23,-0.000,0.0,0.0,0.0
22/08/2023,01:59:23,0.000,0.0,0.0,0.0
22/08/2023,02:00:21,0.000,0.0,0.0,0.0
22/08/2023,02:01:21,0.000,0.0,0.0,0.0
22/08/2023,02:02:23,0.000,0.0,0.0,0.0
22/08/2023,02:03:23,-0.000,0.0,0.0,0.0
22/08/2023,02:04:23,0.001,0.0,0.0,0.0
22/08/2023,02:05:23,-0.000,0.0,0.0,0.0
22/08/2023,02:06:23,0.000,0.0,0.0,0.0
22/08/2023,02:07:23,-0.000,0.0,0.0,0.0
22/08/2023,02:08:23,0.001,0.0,0.0,0.0
22/08/2023,02:09:23,0.000,0.0,0.0,0.0
22/08/2023,02:10:23,-0.001,0.0,0.0,0.0
22/08/2023,02:11:23,-0.000,0.0,0.0,0.0
22/08/2023,02:12:23,0.000,0.0,0.0,0.0
22/08/2023,02:13:23,0.000,0.0,0.0,0.0
22/08/2023,02:14:23,-0.000,0.0,0.0,0.0
22/08/2023,02:15:24,0.001,0.0,0.0,0.0
22/08/2023,02:16:23,0.000,0.0,0.0,0.0
22/08/2023,02:17:23,0.000,0.0,0.0,0.0
22/08/2023,02:18:23,0.000,0.0,0.0,0.0
22/08/2023,02:19:23,0.000,0.0,0.0,0.0
22/08/2023,02:20:23,-0.000,0.0,0.0,0.0
22/08/2023,02:21:23,0.000,0.0,0.0,0.0
22/08/2023,02:22:20,0.000,0.0,0.0,0.0
22/08/2023,02:23:21,0.000,0.0,0.0,0.0
22/08/2023,02:24:23,0.000,0.0,0.0,0.0
22/08/2023,02:25:23,-0.000,0.0,0.0,0.0
22/08/2023,02:26:23,0.001,0.0,0.0,0.0
22/08/2023,02:27:23,0.000,0.0,0.0,0.0
22/08/2023,02:28:23,0.001,0.0,0.0,0.0
22/08/2023,02:29:23,0.000,0.0,0.0,0.0
22/08/2023,02:30:23,-0.000,0.0,0.0,0.0
22/08/2023,02:31:23,0.000,0.0,0.0,0.0
22/08/2023,02:32:23,-0.000,0.0,0.0,0.0
22/08/2023,02:33:23,0.000,0.0,0.0,0.0
22/08/2023,02:34:23,-0.000,0.0,0.0,0.0
22/08/2023,02:35:23,-0.000,0.0,0.0,0.0
22/08/2023,02:36:23,-0.000,0.0,0.0,0.0
22/08/2023,02:37:23,-0.000,0.0,0.0,0.0
22/08/2023,02:38:23,-0.000,0.0,0.0,0.0
22/08/2023,02:39:21,-0.000,0.0,0.0,0.0
22/08/2023,02:40:21,-0.000,0.0,0.0,0.0
22/08/2023,02:41:23,-0.000,0.0,0.0,0.0
22/08/2023,02:42:23,-0.000,0.0,0.0,0.0
22/08/2023,02:43:23,-0.000,0.0,0.0,0.0
22/08/2023,02:44:23,-0.001,0.0,0.0,0.0
22/08/2023,02:45:23,-0.000,0.0,0.0,0.0
22/08/2023,02:46:23,-0.000,0.0,0.0,0.0
22/08/2023,02:47:23,-0.000,0.0,0.0,0.0
22/08/2023,02:48:23,-0.000,0.0,0.0,0.0
22/08/2023,02:49:24,0.000,0.0,0.0,0.0
22/08/2023,02:50:23,-0.000,0.0,0.0,0.0
22/08/2023,02:51:23,-0.000,0.0,0.0,0.0
22/08/2023,02:52:23,-0.000,0.0,0.0,0.0
22/08/2023,02:53:23,-0.000,0.0,0.0,0.0
22/08/2023,02:54:23,-0.000,0.0,0.0,0.0
22/08/2023,02:55:23,0.000,0.0,0.0,0.0
22/08/2023,02:56:23,-0.000,0.0,0.0,0.0
22/08/2023,02:57:23,-0.000,0.0,0.0,0.0
22/08/2023,02:58:23,-0.000,0.0,0.0,0.0
22/08/2023,02:59:23,-0.000,0.0,0.0,0.0
22/08/2023,03:00:23,-0.000,0.0,0.0,0.0
22/08/2023,03:01:23,-0.000,0.0,0.0,0.0
22/08/2023,03:02:23,-0.000,0.0,0.0,0.0
22/08/2023,03:03:23,-0.000,0.0,0.0,0.0
22/08/2023,03:04:23,-0.000,0.0,0.0,0.0
22/08/2023,03:05:23,-0.000,0.0,0.0,0.0
22/08/2023,03:06:23,-0.001,0.0,0.0,0.0
22/08/2023,03:07:23,-0.000,0.0,0.0,0.0
22/08/2023,03:08:21,-0.000,0.0,0.0,0.0
22/08/2023,03:09:21,-0.000,0.0,0.0,0.0
22/08/2023,03:10:23,-0.000,0.0,0.0,0.0
22/08/2023,03:11:24,0.000,0.0,0.0,0.0
22/08/2023,03:12:23,-0.000,0.0,0.0,0.0
22/08/2023,03:13:23,-0.000,0.0,0.0,0.0
22/08/2023,03:14:23,-0.000,0.0,0.0,0.0
22/08/2023,03:15:23,-0.001,0.0,0.0,0.0
22/08/2023,03:16:24,-0.000,0.0,0.0,0.0
22/08/2023,03:17:23,-0.000,0.0,0.0,0.0
22/08/2023,03:18:24,-0.001,0.0,0.0,0.0
22/08/2023,03:19:23,-0.000,0.0,0.0,0.0
22/08/2023,03:20:23,-0.000,0.0,0.0,0.0
22/08/2023,03:21:23,-0.000,0.0,0.0,0.0
22/08/2023,03:22:23,-0.000,0.0,0.0,0.0
22/08/2023,03:23:23,0.000,0.0,0.0,0.0
22/08/2023,03:24:23,-0.000,0.0,0.0,0.0
22/08/2023,03:25:24,-0.000,0.0,0.0,0.0
22/08/2023,03:26:23,0.000,0.0,0.0,0.0
22/08/2023,03:27:24,-0.000,0.0,0.0,0.0
22/08/2023,03:28:21,-0.000,0.0,0.0,0.0
22/08/2023,03:29:21,-0.000,0.0,0.0,0.0
22/08/2023,03:30:23,0.001,0.0,0.0,0.0
22/08/2023,03:31:23,-0.000,0.0,0.0,0.0
22/08/2023,03:32:23,-0.000,0.0,0.0,0.0
22/08/2023,03:33:23,-0.000,0.0,0.0,0.0
22/08/2023,03:34:24,-0.000,0.0,0.0,0.0
22/08/2023,03:35:23,-0.000,0.0,0.0,0.0
22/08/2023,03:36:23,0.000,0.0,0.0,0.0
22/08/2023,03:37:23,-0.000,0.0,0.0,0.0
22/08/2023,03:38:23,-0.000,0.0,0.0,0.0
22/08/2023,03:39:23,-0.000,0.0,0.0,0.0
22/08/2023,03:40:21,-0.001,0.0,0.0,0.0
22/08/2023,03:41:21,-0.000,0.0,0.0,0.0
22/08/2023,03:42:23,0.001,0.0,0.0,0.0
22/08/2023,03:43:21,-0.000,0.0,0.0,0.0
22/08/2023,03:44:21,-0.000,0.0,0.0,0.0
22/08/2023,03:45:25,-0.000,0.0,0.0,0.0
22/08/2023,03:46:24,-0.000,0.0,0.0,0.0
22/08/2023,03:47:23,-0.000,0.0,0.0,0.0
22/08/2023,03:48:23,-0.000,0.0,0.0,0.0
22/08/2023,03:49:23,-0.000,0.0,0.0,0.0
22/08/2023,03:50:23,-0.000,0.0,0.0,0.0
22/08/2023,03:51:21,-0.000,0.0,0.0,0.0
22/08/2023,03:52:21,-0.000,0.0,0.0,0.0
22/08/2023,03:53:23,-0.000,0.0,0.0,0.0
22/08/2023,03:54:23,-0.001,0.0,0.0,0.0
22/08/2023,03:55:23,-0.000,0.0,0.0,0.0
22/08/2023,03:56:23,-0.001,0.0,0.0,0.0
22/08/2023,03:57:23,-0.000,0.0,0.0,0.0
22/08/2023,03:58:23,-0.001,0.0,0.0,0.0
22/08/2023,03:59:23,-0.000,0.0,0.0,0.0
22/08/2023,04:00:24,-0.001,0.0,0.0,0.0
22/08/2023,04:01:23,-0.000,0.0,0.0,0.0
22/08/2023,04:02:23,-0.000,0.0,0.0,0.0
22/08/2023,04:03:23,-0.000,0.0,0.0,0.0
22/08/2023,04:04:23,-0.000,0.0,0.0,0.0
22/08/2023,04:05:23,-0.000,0.0,0.0,0.0
22/08/2023,04:06:24,-0.000,0.0,0.0,0.0
22/08/2023,04:07:23,-0.000,0.0,0.0,0.0
22/08/2023,04:08:23,-0.000,0.0,0.0,0.0
22/08/2023,04:09:21,-0.000,0.0,0.0,0.0
22/08/2023,04:10:21,-0.001,0.0,0.0,0.0
22/08/2023,04:11:23,-0.000,0.0,0.0,0.0
22/08/2023,04:12:23,-0.000,0.0,0.0,0.0
22/08/2023,04:13:23,-0.000,0.0,0.0,0.0
22/08/2023,04:14:23,-0.000,0.0,0.0,0.0
22/08/2023,04:15:23,-0.000,0.0,0.0,0.0
22/08/2023,04:16:23,0.000,0.0,0.0,0.0
22/08/2023,04:17:24,-0.000,0.0,0.0,0.0
22/08/2023,04:18:23,-0.000,0.0,0.0,0.0
22/08/2023,04:19:24,-0.001,0.0,0.0,0.0
22/08/2023,04:20:23,-0.000,0.0,0.0,0.0
22/08/2023,04:21:24,-0.000,0.0,0.0,0.0
22/08/2023,04:22:23,-0.000,0.0,0.0,0.0
22/08/2023,04:23:23,-0.000,0.0,0.0,0.0
22/08/2023,04:24:22,-0.001,0.0,0.0,0.0
22/08/2023,04:25:21,-0.000,0.0,0.0,0.0
22/08/2023,04:26:23,-0.001,0.0,0.0,0.0
22/08/2023,04:27:23,-0.000,0.0,0.0,0.0
22/08/2023,04:28:23,0.001,0.0,0.0,0.0
22/08/2023,04:29:23,-0.000,0.0,0.0,0.0
22/08/2023,04:30:23,-0.000,0.0,0.0,0.0
22/08/2023,04:31:24,0.001,0.0,0.0,0.0
22/08/2023,04:32:23,-0.000,0.0,0.0,0.0
22/08/2023,04:33:23,-0.000,0.0,0.0,0.0
22/08/2023,04:34:24,-0.001,0.0,0.0,0.0
22/08/2023,04:35:23,-0.001,0.0,0.0,0.0
22/08/2023,04:36:24,-0.000,0.0,0.0,0.0
22/08/2023,04:37:23,-0.001,0.0,0.0,0.0
22/08/2023,04:38:23,-0.000,0.0,0.0,0.0
22/08/2023,04:39:23,-0.000,0.0,0.0,0.0
22/08/2023,04:40:24,-0.000,0.0,0.0,0.0
22/08/2023,04:41:23,-0.000,0.0,0.0,0.0
22/08/2023,04:42:23,-0.000,0.0,0.0,0.0
22/08/2023,04:43:23,-0.000,0.0,0.0,0.0
22/08/2023,04:44:23,-0.001,0.0,0.0,0.0
22/08/2023,04:45:23,-0.000,0.0,0.0,0.0
22/08/2023,04:46:23,-0.000,0.0,0.0,0.0
22/08/2023,04:47:23,-0.000,0.0,0.0,0.0
22/08/2023,04:48:23,-0.000,0.0,0.0,0.0
22/08/2023,04:49:25,-0.000,0.0,0.0,0.0
22/08/2023,04:50:24,-0.001,0.0,0.0,0.0
22/08/2023,04:51:23,-0.000,0.0,0.0,0.0
22/08/2023,04:52:24,-0.000,0.0,0.0,0.0
22/08/2023,04:53:23,-0.000,0.0,0.0,0.0
22/08/2023,04:54:23,-0.000,0.0,0.0,0.0
22/08/2023,04:55:21,0.000,0.0,0.0,0.0
22/08/2023,04:56:22,-0.000,0.0,0.0,0.0
22/08/2023,04:57:23,-0.000,0.0,0.0,0.0
22/08/2023,04:58:23,-0.000,0.0,0.0,0.0
22/08/2023,04:59:24,0.000,0.0,0.0,0.0
22/08/2023,05:00:23,0.000,0.0,0.0,0.0
22/08/2023,05:01:23,0.001,0.0,0.0,0.0
22/08/2023,05:02:23,0.001,0.0,0.0,0.0
22/08/2023,05:03:24,0.001,0.0,0.0,0.0
22/08/2023,05:04:23,0.001,0.0,0.0,0.0
22/08/2023,05:05:24,0.001,0.0,0.0,0.0
22/08/2023,05:06:21,0.001,0.0,0.0,0.0
22/08/2023,05:07:22,0.000,0.0,0.0,0.0
22/08/2023,05:08:23,0.001,0.0,0.0,0.0
22/08/2023,05:09:23,0.001,0.0,0.0,0.0
22/08/2023,05:10:23,0.002,0.0,0.0,0.0
22/08/2023,05:11:23,0.002,0.0,0.0,0.0
22/08/2023,05:12:23,0.002,0.0,0.0,0.0
22/08/2023,05:13:23,0.002,0.0,0.0,0.0
22/08/2023,05:14:23,0.001,0.0,0.0,0.0
22/08/2023,05:15:24,0.002,0.0,0.0,0.0
22/08/2023,05:16:22,0.003,0.0,0.0,0.0
22/08/2023,05:17:23,0.003,0.0,0.0,0.0
22/08/2023,05:18:25,0.002,0.0,0.0,0.0
22/08/2023,05:19:24,0.003,0.0,0.0,0.0
22/08/2023,05:20:24,0.003,0.0,0.0,0.0
22/08/2023,05:21:23,0.004,0.0,0.0,0.0
22/08/2023,05:22:23,0.003,0.0,0.0,0.0
22/08/2023,05:23:24,0.003,0.0,0.0,0.0
22/08/2023,05:24:23,0.003,0.0,0.0,0.0
22/08/2023,05:25:22,0.005,0.0,0.0,0.0
22/08/2023,05:26:22,0.005,0.0,0.0,0.0
22/08/2023,05:27:23,0.005,0.0,0.0,0.0
22/08/2023,05:28:23,0.005,0.0,0.0,0.0
22/08/2023,05:29:24,0.005,0.0,0.0,0.0
22/08/2023,05:30:23,0.005,0.0,0.0,0.0
22/08/2023,05:31:24,0.005,0.0,0.0,0.0
22/08/2023,05:32:23,0.005,0.0,0.0,0.0
22/08/2023,05:33:23,0.006,0.0,0.0,0.0
22/08/2023,05:34:23,0.005,0.0,0.0,0.0
22/08/2023,05:35:21,0.008,0.0,0.0,0.0
22/08/2023,05:36:21,0.007,0.0,0.0,0.0
22/08/2023,05:37:23,0.007,0.0,0.0,0.0
22/08/2023,05:38:23,0.008,0.0,0.001,0.001
22/08/2023,05:39:24,0.007,0.0,0.001,0.0
22/08/2023,05:40:23,0.008,0.0,0.001,0.0
22/08/2023,05:41:23,0.008,0.0,0.001,0.0
22/08/2023,05:42:24,0.008,0.0,0.001,0.0
22/08/2023,05:43:23,0.008,0.0,0.001,0.0
22/08/2023,05:44:24,0.010,0.0,0.001,0.0
22/08/2023,05:45:23,0.010,0.0,0.002,0.001
22/08/2023,05:46:23,0.010,0.0,0.002,0.0
22/08/2023,05:47:23,0.012,0.0,0.002,0.0
22/08/2023,05:48:24,0.014,0.0,0.002,0.0
22/08/2023,05:49:23,0.015,0.0,0.002,0.0
22/08/2023,05:50:24,0.013,0.0,0.003,0.001
22/08/2023,05:51:23,0.012,0.0,0.003,0.0
22/08/2023,05:52:23,0.012,0.0,0.003,0.0
22/08/2023,05:53:24,0.011,0.0,0.003,0.0
22/08/2023,05:54:23,0.011,0.0,0.003,0.0
22/08/2023,05:55:23,0.012,0.0,0.004,0.001
22/08/2023,05:56:21,0.010,0.0,0.004,0.0
22/08/2023,05:57:22,0.010,0.0,0.004,0.0
22/08/2023,05:58:24,0.010,0.0,0.004,0.0
22/08/2023,05:59:23,0.011,0.0,0.004,0.0
22/08/2023,06:00:23,0.011,0.0,0.004,0.0
22/08/2023,06:01:23,0.013,0.0,0.005,0.001
22/08/2023,06:02:23,0.015,0.0,0.005,0.0
22/08/2023,06:03:23,0.016,0.0,0.005,0.0
22/08/2023,06:04:24,0.015,0.0,0.005,0.0
22/08/2023,06:05:21,0.016,0.0,0.006,0.001
22/08/2023,06:06:22,0.017,0.0,0.006,0.0
22/08/2023,06:07:23,0.018,0.0,0.006,0.0
22/08/2023,06:08:24,0.021,0.0,0.007,0.001
22/08/2023,06:09:23,0.024,0.0,0.007,0.0
22/08/2023,06:10:23,0.028,0.0,0.007,0.0
22/08/2023,06:11:23,0.032,0.0,0.008,0.001
22/08/2023,06:12:24,0.034,0.0,0.008,0.0
22/08/2023,06:13:23,0.039,0.0,0.009,0.001
22/08/2023,06:14:24,0.042,0.0,0.01,0.001
22/08/2023,06:15:21,0.044,0.0,0.01,0.0
22/08/2023,06:16:21,0.047,0.0,0.011,0.001
22/08/2023,06:17:23,0.048,0.0,0.012,0.001
22/08/2023,06:18:23,0.048,0.0,0.013,0.001
22/08/2023,06:19:23,0.049,0.0,0.014,0.001
22/08/2023,06:20:24,0.050,0.0,0.014,0.0
22/08/2023,06:21:21,0.052,0.0,0.015,0.001
22/08/2023,06:22:22,0.054,0.0,0.016,0.001
22/08/2023,06:23:24,0.057,0.0,0.017,0.001
22/08/2023,06:24:23,0.056,0.0,0.018,0.001
22/08/2023,06:25:23,0.053,0.0,0.019,0.001
22/08/2023,06:26:24,0.050,0.0,0.02,0.001
22/08/2023,06:27:23,0.049,0.0,0.021,0.001
22/08/2023,06:28:23,0.047,0.0,0.021,0.0
22/08/2023,06:29:23,0.045,0.0,0.022,0.001
22/08/2023,06:30:23,0.041,0.0,0.023,0.001
22/08/2023,06:31:24,0.041,0.0,0.023,0.0
22/08/2023,06:32:24,0.040,0.0,0.024,0.001
22/08/2023,06:33:23,0.039,0.0,0.025,0.001
22/08/2023,06:34:24,0.041,0.0,0.025,0.0
22/08/2023,06:35:23,0.043,0.0,0.026,0.001
22/08/2023,06:36:24,0.046,0.0,0.027,0.001
22/08/2023,06:37:24,0.048,0.0,0.028,0.001
22/08/2023,06:38:23,0.051,0.0,0.029,0.001
22/08/2023,06:39:21,0.051,0.0,0.029,0.0
22/08/2023,06:40:21,0.050,0.0,0.03,0.001
22/08/2023,06:41:23,0.052,0.0,0.031,0.001
22/08/2023,06:42:22,0.055,0.0,0.032,0.001
22/08/2023,06:43:46,0.061,0.0,0.033,0.001
22/08/2023,06:45:24,0.068,0.0,0.035,0.002
22/08/2023,06:46:24,0.072,0.0,0.036,0.001
22/08/2023,06:47:23,0.074,0.0,0.037,0.001
22/08/2023,06:48:24,0.080,0.0,0.039,0.002
22/08/2023,06:49:24,0.085,0.0,0.04,0.001
22/08/2023,06:50:23,0.089,0.0,0.042,0.002
22/08/2023,06:51:24,0.092,0.0,0.043,0.001
22/08/2023,06:52:24,0.094,0.0,0.045,0.002
22/08/2023,06:53:23,0.092,0.0,0.046,0.001
22/08/2023,06:54:23,0.091,0.0,0.048,0.002
22/08/2023,06:55:24,0.091,0.0,0.049,0.001
22/08/2023,06:56:23,0.094,0.0,0.051,0.002
22/08/2023,06:57:24,0.100,0.0,0.052,0.001
22/08/2023,06:58:23,0.104,0.0,0.054,0.002
22/08/2023,06:59:23,0.110,0.0,0.056,0.002
22/08/2023,07:00:23,0.113,0.0,0.058,0.002
22/08/2023,07:01:24,0.120,0.0,0.06,0.002
22/08/2023,07:02:23,0.124,0.0,0.062,0.002
22/08/2023,07:03:23,0.124,0.0,0.064,0.002
22/08/2023,07:04:21,0.131,0.0,0.066,0.002
22/08/2023,07:05:21,0.146,0.0,0.068,0.002
22/08/2023,07:06:23,0.163,0.0,0.071,0.003
22/08/2023,07:07:22,0.174,0.0,0.073,0.002
22/08/2023,07:08:22,0.184,0.0,0.076,0.003
22/08/2023,07:09:24,0.204,0.0,0.08,0.004
22/08/2023,07:10:24,0.207,0.0,0.083,0.003
22/08/2023,07:11:24,0.212,0.0,0.087,0.004
22/08/2023,07:12:23,0.217,0.0,0.09,0.003
22/08/2023,07:13:23,0.217,0.0,0.094,0.004
22/08/2023,07:14:24,0.224,1.0,0.097,0.003
22/08/2023,07:15:23,0.231,1.0,0.101,0.004
22/08/2023,07:16:23,0.236,1.0,0.105,0.004
22/08/2023,07:17:24,0.241,1.0,0.109,0.004
22/08/2023,07:18:23,0.245,1.0,0.113,0.004
22/08/2023,07:19:24,0.249,1.0,0.117,0.004
22/08/2023,07:20:24,0.256,1.0,0.121,0.004
22/08/2023,07:21:24,0.260,1.0,0.126,0.005
22/08/2023,07:22:23,0.263,1.0,0.13,0.004
22/08/2023,07:23:23,0.267,1.0,0.134,0.004
22/08/2023,07:24:23,0.275,1.0,0.139,0.005
22/08/2023,07:25:24,0.278,1.0,0.144,0.005
22/08/2023,07:26:23,0.283,1.0,0.148,0.004
22/08/2023,07:27:23,0.289,1.0,0.153,0.005
22/08/2023,07:28:24,0.290,1.0,0.158,0.005
22/08/2023,07:29:24,0.293,1.0,0.163,0.005
22/08/2023,07:30:25,0.305,1.0,0.168,0.005
22/08/2023,07:31:23,0.311,1.0,0.173,0.005
22/08/2023,07:32:23,0.284,1.0,0.178,0.005
22/08/2023,07:33:23,0.322,1.0,0.183,0.005
22/08/2023,07:34:24,0.326,1.0,0.188,0.005
22/08/2023,07:35:24,0.331,1.0,0.194,0.006
22/08/2023,07:36:24,0.337,1.0,0.199,0.005
22/08/2023,07:37:23,0.343,1.0,0.204,0.005
22/08/2023,07:38:24,0.347,1.0,0.21,0.006
22/08/2023,07:39:23,0.353,1.0,0.216,0.006
22/08/2023,07:40:23,0.357,1.0,0.222,0.006
22/08/2023,07:41:22,0.362,1.0,0.228,0.006
22/08/2023,07:42:21,0.335,1.0,0.233,0.005
22/08/2023,07:43:23,0.318,1.0,0.239,0.006
22/08/2023,07:44:24,0.377,1.0,0.245,0.006
22/08/2023,07:45:23,0.353,1.0,0.251,0.006
22/08/2023,07:46:24,0.374,1.0,0.257,0.006
22/08/2023,07:47:23,0.387,1.0,0.263,0.006
22/08/2023,07:48:24,0.371,1.0,0.27,0.007
22/08/2023,07:49:23,0.324,1.0,0.276,0.006
22/08/2023,07:50:24,0.331,1.0,0.281,0.005
22/08/2023,07:51:23,0.394,1.0,0.287,0.006
22/08/2023,07:52:23,0.377,1.0,0.294,0.007
22/08/2023,07:53:24,0.359,1.0,0.3,0.006
22/08/2023,07:54:23,0.414,1.0,0.306,0.006
22/08/2023,07:55:23,0.438,1.0,0.313,0.007
22/08/2023,07:56:23,0.381,1.0,0.32,0.007
22/08/2023,07:57:24,0.357,1.0,0.326,0.006
22/08/2023,07:58:24,0.377,1.0,0.332,0.006
22/08/2023,07:59:23,0.451,1.0,0.34,0.008
22/08/2023,08:00:24,0.481,1.0,0.347,0.007
22/08/2023,08:01:22,0.491,1.0,0.355,0.008
22/08/2023,08:02:21,0.498,1.0,0.363,0.008
22/08/2023,08:03:23,0.504,1.0,0.372,0.009
22/08/2023,08:04:24,0.510,1.0,0.38,0.008
22/08/2023,08:05:23,0.519,1.0,0.389,0.009
22/08/2023,08:06:23,0.526,1.0,0.398,0.009
22/08/2023,08:07:23,0.532,1.0,0.406,0.008
22/08/2023,08:08:24,0.538,1.0,0.415,0.009
22/08/2023,08:09:23,0.544,1.0,0.424,0.009
22/08/2023,08:10:24,0.552,1.0,0.434,0.01
22/08/2023,08:11:24,0.553,1.0,0.443,0.009
22/08/2023,08:12:23,0.564,1.0,0.452,0.009
22/08/2023,08:13:24,0.572,1.0,0.461,0.009
22/08/2023,08:14:23,0.580,1.0,0.471,0.01
22/08/2023,08:15:23,0.590,1.0,0.481,0.01
22/08/2023,08:16:24,0.594,1.0,0.491,0.01
22/08/2023,08:17:22,0.602,1.0,0.5,0.009
22/08/2023,08:18:22,0.611,1.0,0.51,0.01
22/08/2023,08:19:24,0.617,1.0,0.521,0.011
22/08/2023,08:20:23,0.627,1.0,0.531,0.01
22/08/2023,08:21:23,0.637,1.0,0.542,0.011
22/08/2023,08:22:24,0.647,1.0,0.553,0.011
22/08/2023,08:23:24,0.657,2.0,0.564,0.011
22/08/2023,08:24:23,0.662,2.0,0.574,0.01
22/08/2023,08:25:23,0.671,2.0,0.586,0.012
22/08/2023,08:26:24,0.679,2.0,0.597,0.011
22/08/2023,08:27:24,0.688,2.0,0.608,0.011
22/08/2023,08:28:24,0.695,2.0,0.62,0.012
22/08/2023,08:29:23,0.524,1.0,0.63,0.01
22/08/2023,08:30:23,0.626,1.0,0.64,0.01
22/08/2023,08:31:23,0.719,2.0,0.652,0.012
22/08/2023,08:32:23,0.717,2.0,0.664,0.012
22/08/2023,08:33:23,0.530,1.0,0.675,0.011
22/08/2023,08:34:24,0.493,1.0,0.683,0.008
22/08/2023,08:35:23,0.614,1.0,0.692,0.009
22/08/2023,08:36:23,0.409,1.0,0.7,0.008
22/08/2023,08:37:23,0.392,1.0,0.706,0.006
22/08/2023,08:38:24,0.429,1.0,0.713,0.007
22/08/2023,08:39:24,0.433,1.0,0.721,0.008
22/08/2023,08:40:23,0.519,1.0,0.728,0.007
22/08/2023,08:41:24,0.350,1.0,0.735,0.007
22/08/2023,08:42:24,0.404,1.0,0.741,0.006
22/08/2023,08:43:23,0.476,1.0,0.749,0.008
22/08/2023,08:44:24,0.481,1.0,0.757,0.008
22/08/2023,08:45:24,0.463,1.0,0.765,0.008
22/08/2023,08:46:23,0.478,1.0,0.773,0.008
22/08/2023,08:47:24,0.492,1.0,0.781,0.008
22/08/2023,08:48:23,0.450,1.0,0.789,0.008
22/08/2023,08:49:23,0.417,1.0,0.796,0.007
22/08/2023,08:50:22,0.416,1.0,0.803,0.007
22/08/2023,08:51:22,0.505,1.0,0.81,0.007
22/08/2023,08:52:23,0.586,1.0,0.82,0.01
22/08/2023,08:53:22,0.620,1.0,0.829,0.009
22/08/2023,08:54:21,0.632,1.0,0.842,0.013
22/08/2023,08:55:23,0.672,2.0,0.853,0.011
22/08/2023,08:56:24,0.595,1.0,0.864,0.011
22/08/2023,08:57:24,0.569,1.0,0.874,0.01
22/08/2023,08:58:24,0.563,1.0,0.883,0.009
22/08/2023,08:59:23,0.569,1.0,0.892,0.009
22/08/2023,09:00:24,0.590,1.0,0.902,0.01
22/08/2023,09:01:24,0.613,1.0,0.912,0.01
22/08/2023,09:02:23,0.629,1.0,0.923,0.011
22/08/2023,09:03:24,0.596,1.0,0.933,0.01
22/08/2023,09:04:23,0.551,1.0,0.942,0.009
22/08/2023,09:05:23,0.546,1.0,0.951,0.009
22/08/2023,09:06:24,0.602,1.0,0.961,0.01
22/08/2023,09:07:24,0.612,1.0,0.971,0.01
22/08/2023,09:08:23,0.861,2.0,0.983,0.012
22/08/2023,09:09:24,0.627,1.0,0.995,0.012
22/08/2023,09:10:24,0.923,2.0,1.007,0.012
22/08/2023,09:11:23,0.677,2.0,1.018,0.011
22/08/2023,09:12:24,0.755,2.0,1.031,0.013
22/08/2023,09:13:23,0.692,2.0,1.043,0.012
22/08/2023,09:14:24,0.716,2.0,1.055,0.012
22/08/2023,09:15:24,0.650,1.0,1.066,0.011
22/08/2023,09:16:24,0.657,2.0,1.077,0.011
22/08/2023,09:17:24,0.680,2.0,1.089,0.012
22/08/2023,09:18:24,0.813,2.0,1.1,0.011
22/08/2023,09:19:23,1.097,3.0,1.117,0.017
22/08/2023,09:20:23,1.118,3.0,1.135,0.018
22/08/2023,09:21:23,1.138,3.0,1.154,0.019
22/08/2023,09:22:24,1.149,3.0,1.173,0.019
22/08/2023,09:23:24,1.165,3.0,1.193,0.02
22/08/2023,09:24:23,0.809,2.0,1.209,0.016
22/08/2023,09:25:24,1.186,3.0,1.227,0.018
22/08/2023,09:26:24,1.181,3.0,1.246,0.019
22/08/2023,09:27:23,1.192,3.0,1.266,0.02
22/08/2023,09:28:24,1.181,3.0,1.286,0.02
22/08/2023,09:29:24,1.208,3.0,1.306,0.02
22/08/2023,09:30:24,1.228,3.0,1.326,0.02
22/08/2023,09:31:23,1.244,3.0,1.346,0.02
22/08/2023,09:32:24,1.249,3.0,1.367,0.021
22/08/2023,09:33:23,1.257,3.0,1.388,0.021
22/08/2023,09:34:23,1.279,3.0,1.409,0.021
22/08/2023,09:35:24,1.280,3.0,1.431,0.022
22/08/2023,09:36:23,1.145,3.0,1.451,0.02
22/08/2023,09:37:24,0.823,2.0,1.466,0.015
22/08/2023,09:38:24,0.816,2.0,1.479,0.013
22/08/2023,09:39:24,1.025,2.0,1.498,0.019
22/08/2023,09:40:23,0.730,2.0,1.511,0.013
22/08/2023,09:41:24,0.777,2.0,1.524,0.013
22/08/2023,09:42:24,1.088,3.0,1.54,0.016
22/08/2023,09:43:24,0.884,2.0,1.555,0.015
22/08/2023,09:44:23,1.335,3.0,1.571,0.016
22/08/2023,09:45:23,1.354,3.0,1.593,0.022
22/08/2023,09:46:24,0.897,2.0,1.614,0.021
22/08/2023,09:47:24,0.940,2.0,1.629,0.015
22/08/2023,09:48:24,0.850,2.0,1.643,0.014
22/08/2023,09:49:23,1.042,3.0,1.663,0.02
22/08/2023,09:50:23,1.361,3.0,1.685,0.022
22/08/2023,09:51:24,1.385,3.0,1.708,0.023
22/08/2023,09:52:24,1.390,3.0,1.731,0.023
22/08/2023,09:53:24,1.416,3.0,1.755,0.024
22/08/2023,09:54:23,1.431,3.0,1.778,0.023
22/08/2023,09:55:24,1.445,3.0,1.802,0.024
22/08/2023,09:56:23,1.446,3.0,1.826,0.024
22/08/2023,09:57:23,1.443,3.0,1.85,0.024
22/08/2023,09:58:23,1.459,3.0,1.875,0.025
22/08/2023,09:59:24,1.475,3.0,1.899,0.024
22/08/2023,10:00:23,1.478,3.0,1.922,0.023
22/08/2023,10:01:23,1.428,3.0,1.947,0.025